Location: Rooftop Observatory
(39.0308°N, 87.1711°W)
Time: 06:37:02
(UTC-06:00)

Daily predictions for brighter satellites

Satellite Brightness Start Highest point End
(mag) Time Altitude Azimuth Time Altitude Azimuth Time Altitude Azimuth
SL-16 R/B 2.3 17:58:25 10° NNW 18:04:08 88° WSW 18:09:48 10° SSE
Okean 2 Rocket 3.9 18:00:20 10° SSW 18:04:43 56° W 18:09:05 10° N
FREGAT/IRIS 3.7 18:02:25 10° SE 18:05:03 26° ENE 18:07:42 10° NNE
Cosmos 1340 3.4 18:03:35 10° N 18:07:02 32° ENE 18:10:26 10° SE
Cosmos 1709 Rocket 4.1 18:06:18 10° SSE 18:12:21 57° E 18:18:22 10° NNE
Cosmos 1484 Rocket 4.3 18:10:49 10° S 18:14:35 42° W 18:18:19 10° NNW
Helios 1B rocket 4.2 18:18:13 11° E 18:19:01 12° E 18:20:39 10° ESE
Cosmos 1954 Rocket 4.0 18:14:31 10° S 18:19:40 68° ESE 18:24:51 10° NNE
Cosmos 2322 Rocket 2.8 18:14:58 10° NNW 18:20:31 63° WSW 18:26:03 10° S
Meteor 1-28 Rocket 3.9 18:17:05 10° N 18:20:50 60° WNW 18:24:35 10° SSW
HJ-1C 4.3 18:19:18 10° SE 18:22:12 28° ENE 18:25:08 10° NNE
Tiangong 2 1.9 18:20:25 10° WNW 18:23:23 46° SSW 18:26:21 10° SE
SJ-6B 2.9 18:19:36 10° SSE 18:23:31 53° ENE 18:27:22 10° N
Cosmos 2151 Rocket 3.8 18:19:20 10° S 18:23:49 78° W 18:28:22 10° N
Okean 1 Rocket 3.6 18:20:42 10° SSE 18:24:50 37° E 18:28:58 10° NNE
FENGYUN 3A 4.0 18:22:16 10° SE 18:27:22 44° ENE 18:32:29 10° N
TSX-5 3.5 18:24:20 10° SSW 18:27:30 69° WNW 18:30:43 10° NNE
Meteor 1-19 Rocket 4.4 18:23:25 10° N 18:28:57 52° ENE 18:34:34 10° SSE
Gbstr 26 Del rocket 2.5 18:30:05 10° SW 18:33:57 74° SE 18:36:53 16° NE
Cosmos 2322 3.8 18:31:12 10° NNW 18:36:52 60° ENE 18:42:28 10° SE
Cosmos 1238 Rocket 2.0 18:35:16 10° N 18:38:12 61° E 18:41:09 10° SSE
NOAA 12 4.3 18:33:07 10° S 18:38:26 77° WSW 18:43:47 10° NNW
GPS 2-04 Rocket1 3.9 18:40:38 10° SW 18:44:28 32° SSE 18:46:29 21° ESE
CZ-2D R/B 4.1 18:43:32 22° ESE 18:44:51 28° ENE 18:48:08 10° NNE
Cosmos 1025 Rocket 3.7 18:41:51 10° NNE 18:45:47 31° ENE 18:48:41 16° SE
Meteor 1-13 Rocket 4.1 18:40:26 10° N 18:46:01 84° E 18:51:41 10° S
GEOS 3 Rocket 3.6 18:41:07 10° NE 18:46:20 66° ESE 18:51:35 10° SSW
H-2A R/B 3.0 18:46:33 10° SE 18:50:04 43° ENE 18:53:37 10° N
Cosmos 1536 2.8 18:46:32 10° S 18:50:26 58° E 18:54:22 10° NNE
Okean 1-7 Rocket 3.7 18:47:39 10° N 18:52:05 50° E 18:56:26 10° SSE
COSMOS 2428 3.1 18:46:46 10° N 18:52:09 42° ENE 18:55:38 20° ESE
Cosmos 2237 4.3 18:46:52 10° NNW 18:52:29 53° ENE 18:57:27 13° SE
SL-19 R/B 4.3 18:47:05 10° SSE 18:52:39 64° ENE 18:58:35 10° N
Meteor 1-23 Rocket 4.5 18:47:06 10° N 18:52:42 48° ENE 18:58:13 10° SSE
Cosmos 1633 3.4 18:51:18 10° SSW 18:54:54 53° W 18:58:32 10° N
Meteor 2-4 Rocket 3.6 18:49:35 10° N 18:55:05 61° ENE 19:00:24 10° SSE
Cosmos 2237 Rocket 3.8 18:52:19 10° NNE 18:55:50 16° NE 18:55:53 16° NE
SL-08 ROCKET BODY 4.4 18:51:26 10° S 18:57:30 62° E 19:03:36 10° NNE
Cosmos 1741 Rocket 3.9 18:57:56 10° SSW 19:03:09 78° ESE 19:08:23 10° NNE
Cosmos 2360 Rocket 2.6 19:05:46 10° NNW 19:11:21 63° WSW 19:16:55 10° S
Cosmos 2219 3.1 19:05:46 10° SSW 19:11:30 77° ESE 19:17:15 10° NNE
Cosmos 2219 Rocket 2.8 19:08:03 10° N 19:13:08 34° ENE 19:13:35 34° ENE
Cosmos 1570 Rocket 3.9 19:14:45 10° NNW 19:20:00 90° W 19:24:15 16° SSE
BREEZE-M DEB (TANK) 2.6 19:20:26 10° WSW 19:23:46 59° W 19:23:46 59° W
Resurs 01 Rocket 2.1 19:21:24 10° S 19:25:44 59° W 19:30:06 10° NNW
SL-16 R/B 4.3 19:26:28 10° NNE 19:27:20 12° NNE 19:27:20 12° NNE
DELTA 2 R/B (1) 4.2 19:24:15 10° W 19:29:36 47° SSW 19:31:31 34° SSE
Abrixas rocket 3.2 19:27:12 10° WSW 19:29:39 46° WSW 19:29:39 46° WSW
Spot 1 3.8 19:31:44 83° SSE 19:31:54 88° ENE 19:36:02 10° NNW
Cosmos 1610 Rocket 4.3 19:26:02 10° S 19:32:13 71° E 19:38:23 10° NNE
ATLAS CENTAUR R/B 3.1 19:28:09 10° SSW 19:30:46 26° SSW 19:30:46 26° SSW
BREEZE-M DEB (TANK) 3.9 19:29:15 10° NW 19:32:51 64° NE 19:35:01 43° E
ALOS 3.8 19:30:28 10° SSW 19:34:46 37° W 19:39:06 10° NNW
Spot 2 Rocket 4.4 19:35:49 10° S 19:40:40 48° W 19:45:35 10° NNW
Helios 1A 3.0 19:40:56 75° W 19:40:56 75° W 19:45:02 10° NNW
Cosmos 2333 Rocket 2.6 19:41:27 10° NNW 19:46:14 48° NNE 19:46:14 48° NNE
USA 229 DEB 3.7 19:45:40 10° NNW 19:52:52 84° ENE 19:54:32 57° SE
USA 229 3.7 19:45:46 10° NNW 19:52:57 83° NE 19:54:36 58° SE
Helios 1B rocket 3.2 19:50:35 10° N 19:54:36 50° WNW 19:58:37 10° SSW
Envisat 3.8 19:58:42 42° N 19:58:42 42° N 20:02:02 10° N
BREEZE-M DEB (TANK) 3.8 20:14:44 10° WNW 20:17:20 48° WSW 20:17:20 48° WSW
Nadezhda 3 Rocket 4.1 20:15:41 10° NNW 20:21:26 68° WNW 20:21:26 68° WNW
NOSS 3-1 (C) 4.1 20:17:39 10° NNW 20:24:23 61° NNE 20:24:23 61° NNE
Cosmos 2237 Rocket 3.7 20:34:51 10° NNW 20:37:44 31° NNW 20:37:44 31° NNW
Cosmos 2219 Rocket 4.0 20:52:05 10° NW 20:55:22 27° WNW 20:55:22 27° WNW
